TimeMDT,TemperatureF,Dew PointF,Humidity,Sea Level PressureIn,VisibilityMPH,Wind Direction,Wind SpeedMPH,Gust SpeedMPH,PrecipitationIn,Events,Conditions,WindDirDegrees,DateUTC
12:56 AM,66.0,39.9,38,29.71,-9999.0,NNW,16.1,-,N/A,,Unknown,330,2013-05-15 06:56:00
1:56 AM,63.0,41.0,45,29.70,-9999.0,NW,11.5,-,N/A,,Unknown,320,2013-05-15 07:56:00
2:56 AM,59.0,39.9,49,29.70,-9999.0,NW,10.4,-,N/A,,Unknown,310,2013-05-15 08:56:00
3:56 AM,57.9,39.0,49,29.70,-9999.0,NW,11.5,-,N/A,,Unknown,320,2013-05-15 09:56:00
4:56 AM,57.9,39.0,49,29.70,-9999.0,NW,11.5,-,N/A,,Unknown,320,2013-05-15 10:56:00
5:56 AM,59.0,39.9,49,29.70,-9999.0,NW,12.7,-,N/A,,Unknown,310,2013-05-15 11:56:00
6:56 AM,66.9,41.0,39,29.70,-9999.0,NW,11.5,-,N/A,,Unknown,320,2013-05-15 12:56:00
7:56 AM,75.9,41.0,29,29.69,-9999.0,NNW,13.8,-,N/A,,Unknown,330,2013-05-15 13:56:00
8:56 AM,80.1,39.9,24,29.70,-9999.0,NNW,11.5,-,N/A,,Unknown,340,2013-05-15 14:56:00
9:56 AM,82.9,36.0,19,29.69,-9999.0,East,3.5,-,N/A,,Unknown,90,2013-05-15 15:56:00
10:56 AM,84.9,32.0,15,29.67,-9999.0,ENE,6.9,-,N/A,,Unknown,70,2013-05-15 16:56:00
11:56 AM,86.0,35.1,16,29.66,-9999.0,Variable,3.5,-,N/A,,Unknown,0,2013-05-15 17:56:00
12:56 PM,87.1,32.0,14,29.64,-9999.0,ENE,9.2,18.4,N/A,,Unknown,60,2013-05-15 18:56:00
1:56 PM,86.0,30.9,14,29.63,-9999.0,ESE,8.1,-,N/A,,Unknown,110,2013-05-15 19:56:00
2:56 PM,87.1,28.9,12,29.62,-9999.0,Calm,Calm,-,N/A,,Unknown,0,2013-05-15 20:56:00
3:56 PM,86.0,28.9,13,29.62,-9999.0,NE,8.1,-,N/A,,Unknown,40,2013-05-15 21:56:00
4:56 PM,84.9,30.0,14,29.62,-9999.0,WNW,8.1,-,N/A,,Unknown,300,2013-05-15 22:56:00
5:56 PM,84.0,30.0,14,29.62,-9999.0,ENE,6.9,-,N/A,,Unknown,60,2013-05-15 23:56:00
6:56 PM,82.9,30.0,15,29.62,-9999.0,ESE,5.8,-,N/A,,Unknown,110,2013-05-16 00:56:00
7:56 PM,75.9,33.1,21,29.63,-9999.0,East,3.5,-,N/A,,Unknown,90,2013-05-16 01:56:00
8:56 PM,75.9,36.0,23,29.66,-9999.0,SW,3.5,-,N/A,,Unknown,220,2013-05-16 02:56:00
9:56 PM,75.9,36.0,23,29.68,-9999.0,NNW,8.1,-,N/A,,Unknown,330,2013-05-16 03:56:00
10:56 PM,70.0,39.0,32,29.70,-9999.0,North,4.6,-,N/A,,Unknown,360,2013-05-16 04:56:00
11:56 PM,64.0,37.9,38,29.70,-9999.0,North,6.9,-,N/A,,Unknown,350,2013-05-16 05:56:00